ONEWEB-0702, 61608

Orbit data source: Space-Track

ONEWEB-0702, 61608 is a payload satellite owned by Eut. One Web (UK) in LEO that was launched on Sun, 20 Oct 2024 UTC via an FALCON 9 launch vehicle from the Air Force Western Test Range (AFWTR). Payload-class satellites include a variety of spacecraft equipped with specific instruments for various scientific and technological missions. These include communications satellites like Starlink; space stations such as the ISS; scientific satellites like the Hubble; Earth observation satellites from companies like Planet Labs, Umbra, and HawkEye 360; GPS; miniature CubeSats for education and research; and military/defense satellites.

Loading next visibility...
Identifier
61608, 2024-188Q
Orbit
LEO
Country
Flag of UKUK
Related business
Manufacturer
One Web
Mission
Operational Commercial Communications
Bus & Motor
ARROW, Unknown motor
Mass
148 kg wet, ~140 kg dry
Launch date (UTC)
2024-10-20 (2 years ago)
Launch vehicle
FALCON 9
Launch site
Air Force Western Test Range (AFWTR)
Object type
Payload
Rocket body
Debris
Shape & HBR
Trap Box + 2 Pan, 6.7 m
Radar Cross Section
3.464 m², Large (>1 m²)

Expand to show TLE details & history
Last TLE update: 1 day ago

TLE from 1 day ago
0 ONEWEB-0702
1 61608U 24188Q   26170.61361436 -.00000719  00000-0 -20642-2 0  9995
2 61608  87.8902  20.5041 0002211 114.0455 246.0904 13.11417196 84804
Epoch: 2026-06-19T14:43Z
TLE epoch observation values (Epoch: 2026-06-19T14:43:36.280Z)
Latitude
-0.00008°
Longitude
-108.23714°
Altitude
1,221.252 km
Speed
7.243 km/s
True Right ascension
01h 22m 00s
True Declination
0° 00' 00"
Sunlit
Object was in daylight at epoch
Visualization orbit readout
Latitude
Unknown
Longitude
Unknown
Altitude
Unknown
Speed
Unknown
Apparent Right ascension
Unknown
Apparent Declination
Unknown
Sunlit
N/A
Visualization observer readout
Local Sidereal Time
07:19:50
Azimuth
Unknown
Elevation
Unknown
Doppler factor
Unknown
Orbital elements
Apogee altitude
1,216.479 km
Perigee altitude
1,213.121 km
Semi-major axis
7,592.937 km
Eccentricity
0.00022
Inclination
87.8902°
RAAN
20.5041°
Arg. of periapsis
114.0455°
True anomaly
246.06724°
Mean anomaly
246.0904°
Eccentric anomaly
246.07882°
Mean motion
3.28041 °/min
Orbital period
109.74 mins
BSTAR
-0.0020642
Loading maneuver chart data...
Computing Atmospheric mass density...
Loading historical data...
Loading historical data...
Loading historical data...
Loading historical data...
Loading historical data...
Loading historical data...
Loading historical data...

Documentation

Showing up to 5 results
|